Location: Aniagüita
(10.0946°N, 66.9708°W)
Time: 16:10:08
(UTC+00:00)

ARIANE 5 R/B - Pass Details

Date: 30 June 2022
Orbit: 435 x 35403 km, 7.5° (Epoch: 06 August)

Event Time Altitude Azimuth Distance (km) Brightness Sun altitude
Rises 23:03:50 0° 267° (W) 12,423 9.5 -3.3°
Reaches altitude 10° 23:20:32 10° 255° (WSW) 6,409 7.5 -7.0°
Maximum altitude 23:30:35 21° 211° (SSW) 2,519 4.7 -9.3°
Drops below altitude 10° 23:34:22 10° 159° (SSE) 2,217 4.0 -10.1°
Enters shadow 23:34:54 - 152° (SSE) 2,315 4.0 -10.2°
